Location: Berg
(48.5667°N, 13.9833°E)
Time: 13:47:23
(UTC+00:00)

STARLINK-1105 - Pass Details

Date: 09 April 2020
Orbit: 376 x 383 km, 53.0° (Epoch: 03 June)

Event Time Altitude Azimuth Distance (km) Brightness Sun altitude
Rises 18:05:18 0° 294° (WNW) 2,270 9.3 -3.8°
Reaches altitude 10° 18:07:23 10° 298° (WNW) 1,415 7.5 -4.1°
Maximum altitude 18:10:30 59° 20° (NNE) 450 3.2 -4.6°
Drops below altitude 10° 18:13:38 10° 101° (E) 1,413 5.1 -5.1°
Enters shadow 18:14:15 - 103° (ESE) 1,664 5.4 -5.2°
